period_start,C,m1,H,J0,J1,J2,J3,J4,J5,JA,JB,JC,JD,JJ,JK,JN,#
2016-10-18 00:02:00,0.01,0.67,0.00,24.54,28.30,31.38,14.44,43.52,1024.90,2027.04,3247.32,2939.99,3324.04,600.18,598.14,24.25,0000 0000 0000 0000 000000
2016-10-18 00:07:01,-0.00,0.67,0.00,24.53,28.30,31.38,14.48,44.24,1024.91,2027.03,3247.21,2939.98,3324.01,599.71,597.62,24.30,0000 0000 0000 0000 000000
2016-10-18 00:12:02,0.00,0.67,0.00,24.53,28.30,31.39,14.54,44.16,1024.91,2027.02,3247.09,2939.97,3324.00,599.95,597.81,24.35,0000 0000 0000 0000 000000
2016-10-18 00:17:03,0.03,0.67,0.00,24.50,28.30,31.41,14.60,44.38,1024.92,2027.00,3246.80,2939.67,3323.90,600.15,597.99,24.40,0000 0000 0000 0000 000000
2016-10-18 00:22:04,0.03,0.67,0.00,24.22,28.30,31.41,14.59,43.98,1024.92,2027.01,3245.98,2939.00,3323.31,600.34,598.81,24.45,0000 0000 0000 0000 000000
2016-10-18 00:27:06,0.15,0.68,0.00,24.10,28.30,31.40,14.55,43.58,1024.91,2027.00,3242.66,2937.34,3321.47,599.78,598.47,24.50,0000 0000 0000 0000 000000
2016-10-18 00:32:07,0.00,0.68,0.00,24.11,28.30,31.37,14.47,43.49,1024.90,2027.00,3241.99,2937.00,3321.01,599.88,598.43,24.55,0000 0000 0000 0000 000000
2016-10-18 00:37:09,0.00,0.68,0.00,24.39,28.30,31.42,14.50,43.61,1024.92,2027.00,3241.98,2937.00,3321.00,599.84,597.85,24.60,0000 0000 0000 0000 000000
2016-10-18 00:42:10,0.00,0.68,0.00,24.50,28.32,31.44,14.46,43.48,1024.92,2027.00,3241.91,2936.99,3321.00,600.08,597.70,24.65,0000 0000 0000 0000 000000
2016-10-18 00:47:11,0.01,0.68,0.00,24.53,28.33,31.43,14.49,43.27,1024.92,2027.00,3241.54,2936.96,3320.99,600.12,597.99,24.70,0000 0000 0000 0000 000000
2016-10-18 00:52:12,0.01,0.68,0.00,24.54,28.35,31.45,14.54,43.50,1024.91,2027.00,3241.07,2936.87,3320.96,600.17,597.86,24.75,0000 0000 0000 0000 000000
2016-10-18 00:57:13,0.01,0.68,0.00,24.56,28.36,31.47,14.45,43.42,1024.92,2027.00,3241.03,2936.57,3320.74,599.84,597.63,24.80,0000 0000 0000 0000 000000
2016-10-18 01:02:15,0.02,0.69,0.00,24.55,28.37,31.48,14.53,43.27,1024.92,2027.00,3241.00,2936.11,3320.16,600.10,597.80,24.85,0000 0000 0000 0000 000000
2016-10-18 01:07:16,-0.00,0.69,0.00,24.54,28.38,31.48,14.52,43.21,1024.92,2027.00,3240.99,2936.04,3320.06,600.11,597.89,24.90,0000 0000 0000 0000 000000
2016-10-18 01:12:18,0.00,0.69,0.00,24.53,28.40,31.48,14.53,43.33,1024.92,2027.00,3240.96,2936.01,3320.01,599.81,597.62,24.95,0000 0000 0000 0000 000000
2016-10-18 01:17:19,0.00,0.69,0.00,24.54,28.40,31.46,14.48,43.42,1024.91,2027.00,3240.93,2936.00,3320.00,600.08,597.85,25.00,0000 0000 0000 0000 000000
2016-10-18 01:22:20,0.01,0.69,0.00,24.53,28.40,31.47,14.48,43.73,1024.92,2026.99,3240.45,2935.99,3320.00,600.07,597.88,25.05,0000 0000 0000 0000 000000
2016-10-18 01:27:21,0.00,0.69,0.00,24.53,28.41,31.46,14.46,43.31,1024.90,2026.98,3240.11,2935.98,3319.99,599.68,597.50,25.10,0000 0000 0000 0000 000000
2016-10-18 01:32:22,0.00,0.69,0.00,24.55,28.42,31.46,14.43,43.31,1024.88,2026.98,3240.00,2935.92,3319.75,599.88,597.75,25.15,0000 0000 0000 0000 000000
2016-10-18 01:37:24,0.04,0.69,0.00,24.54,28.42,31.42,14.46,43.35,1024.91,2026.98,3239.60,2935.20,3319.10,599.61,597.51,25.20,0000 0000 0000 0000 000000
2016-10-18 01:42:25,0.00,0.69,0.00,24.54,28.42,31.42,14.45,43.24,1024.91,2026.98,3239.00,2934.99,3318.97,599.81,597.52,25.25,0000 0000 0000 0000 000000
2016-10-18 01:47:26,0.02,0.69,0.00,24.55,28.42,31.43,14.52,43.32,1024.88,2026.98,3238.38,2934.92,3318.58,600.15,597.94,25.30,0000 0000 0000 0000 000000
2016-10-18 01:52:27,0.01,0.69,0.00,24.51,28.42,31.41,14.43,43.33,1024.88,2026.97,3238.02,2934.61,3318.08,599.48,597.24,25.35,0000 0000 0000 0000 000000
2016-10-18 01:57:29,0.01,0.69,0.00,24.53,28.42,31.41,14.54,43.30,1024.87,2026.98,3238.00,2934.35,3318.03,600.60,598.48,25.40,0000 0000 0000 0000 000000
2016-10-18 02:02:30,0.01,0.69,0.00,24.52,28.42,31.41,14.38,43.28,1024.86,2026.98,3238.00,2934.06,3318.01,599.86,597.63,25.45,0000 0000 0000 0000 000000
2016-10-18 02:07:31,0.00,0.69,0.00,24.53,28.42,31.39,14.44,43.37,1024.84,2026.99,3237.99,2934.03,3318.01,600.04,597.83,25.50,0000 0000 0000 0000 000000
2016-10-18 02:12:32,-0.00,0.69,0.00,24.56,28.42,31.40,14.45,43.41,1024.85,2026.98,3237.99,2934.04,3318.00,599.90,597.70,25.55,0000 0000 0000 0000 000000
2016-10-18 02:17:33,0.00,0.69,0.00,24.55,28.42,31.39,14.48,43.51,1024.78,2026.97,3237.99,2934.01,3318.00,600.17,597.86,25.60,0000 0000 0000 0000 000000
2016-10-18 02:22:35,-0.00,0.69,0.00,24.53,28.42,31.40,14.51,43.80,1024.84,2026.97,3237.98,2934.00,3318.00,600.40,598.01,25.65,0000 0000 0000 0000 000000
2016-10-18 02:27:36,-0.00,0.69,0.00,24.54,28.42,31.39,14.49,43.98,1024.84,2026.96,3237.85,2934.00,3317.99,599.74,597.64,25.70,0000 0000 0000 0000 000000
2016-10-18 02:32:37,-0.00,0.69,0.00,24.57,28.42,31.40,14.47,43.65,1024.68,2026.95,3237.89,2934.00,3317.98,600.01,597.56,25.75,0000 0000 0000 0000 000000
2016-10-18 02:37:38,0.00,0.69,0.00,24.58,28.42,31.36,14.53,43.87,1024.59,2026.96,3237.90,2934.00,3317.99,600.40,597.97,25.80,0000 0000 0000 0000 000000
2016-10-18 02:42:40,-0.00,0.69,0.00,24.57,28.42,31.35,14.45,43.69,1024.64,2026.94,3237.87,2933.99,3317.97,600.06,597.67,25.85,0000 0000 0000 0000 000000
2016-10-18 02:47:41,0.00,0.69,0.00,24.56,28.43,31.38,14.37,43.43,1024.74,2026.91,3237.70,2933.99,3317.86,599.23,596.87,25.90,0000 0000 0000 0000 000000
2016-10-18 02:52:43,-0.00,0.69,0.00,24.59,28.44,31.36,14.42,43.50,1024.82,2026.89,3237.82,2933.98,3317.80,599.98,597.65,25.95,0000 0000 0000 0000 000000
2016-10-18 02:57:44,0.00,0.69,0.00,24.59,28.45,31.34,14.49,43.83,1024.79,2026.77,3237.35,2933.94,3317.36,600.24,597.89,26.01,0000 0000 0000 0000 000000
2016-10-18 03:02:45,-0.02,0.69,0.00,24.60,28.45,31.31,14.54,44.11,1024.72,2026.49,3237.43,2933.93,3317.07,600.34,597.83,26.06,0000 0000 0000 0000 000000
2016-10-18 03:07:46,0.00,0.69,0.00,24.62,28.45,31.36,14.52,43.92,1024.76,2026.43,3237.13,2933.73,3317.03,599.86,597.48,26.11,0000 0000 0000 0000 000000
2016-10-18 03:12:48,-0.01,0.69,0.00,24.66,28.45,31.32,14.44,43.52,1024.87,2026.15,3237.08,2933.52,3317.00,599.85,597.40,26.16,0000 0000 0000 0000 000000
2016-10-18 03:17:49,0.01,0.69,0.00,24.65,28.45,31.33,14.42,43.43,1024.91,2026.28,3237.04,2933.49,3317.01,599.86,597.64,26.21,0000 0000 0000 0000 000000
2016-10-18 03:22:50,0.00,0.69,0.00,24.65,28.45,31.34,14.56,43.85,1024.91,2026.22,3237.00,2933.22,3317.01,600.30,597.86,26.26,0000 0000 0000 0000 000000
2016-10-18 03:27:51,-0.00,0.69,0.00,24.69,28.45,31.33,14.40,43.50,1024.87,2026.17,3236.99,2933.08,3317.00,599.65,597.09,26.31,0000 0000 0000 0000 000000
2016-10-18 03:32:53,0.01,0.69,0.00,24.70,28.45,31.30,14.44,44.03,1024.84,2026.17,3236.93,2933.02,3317.00,600.47,597.85,26.36,0000 0000 0000 0000 000000
2016-10-18 03:37:54,0.03,0.69,0.00,24.71,28.44,31.31,14.48,43.49,1024.79,2026.40,3236.93,2933.02,3316.99,599.59,596.91,26.41,0000 0000 0000 0000 000000
2016-10-18 03:42:56,0.00,0.69,0.00,24.74,28.44,31.31,14.42,43.49,1024.74,2026.56,3236.94,2933.03,3316.99,600.03,597.31,26.46,0000 0000 0000 0000 000000
2016-10-18 03:47:57,-0.03,0.69,0.00,24.70,28.44,31.32,14.40,43.71,1024.78,2026.30,3236.92,2933.02,3316.97,600.17,597.61,26.51,0000 0000 0000 0000 000000
2016-10-18 03:52:58,0.02,0.69,0.00,24.74,28.43,31.32,14.54,43.67,1024.75,2026.22,3236.36,2933.00,3316.95,600.12,597.60,26.56,0000 0000 0000 0000 000000
2016-10-18 03:57:59,0.00,0.69,0.00,24.76,28.44,31.30,14.46,43.62,1024.76,2026.32,3236.06,2933.00,3316.94,600.64,597.86,26.61,0000 0000 0000 0000 000000
2016-10-18 04:03:00,0.01,0.69,0.00,24.78,28.44,31.33,14.51,43.80,1024.65,2026.32,3236.02,2933.00,3316.83,600.31,597.41,26.66,0000 0000 0000 0000 000000
2016-10-18 04:08:01,0.02,0.69,0.00,24.81,28.44,31.33,14.51,43.72,1024.66,2026.33,3236.00,2932.99,3316.26,600.29,597.40,26.71,0000 0000 0000 0000 000000
2016-10-18 04:13:03,0.00,0.69,0.00,24.79,28.45,31.34,14.44,43.39,1024.67,2026.39,3235.99,2932.98,3316.20,600.09,597.24,26.76,0000 0000 0000 0000 000000
2016-10-18 04:18:04,0.02,0.70,0.00,24.81,28.45,31.35,14.51,43.96,1024.75,2026.56,3235.98,2932.97,3316.13,599.94,597.11,26.81,0000 0000 0000 0000 000000
2016-10-18 04:23:05,-0.01,0.70,0.00,24.78,28.45,31.36,14.47,43.79,1024.71,2026.63,3235.97,2932.95,3316.08,600.02,597.25,26.86,0000 0000 0000 0000 000000
2016-10-18 04:28:07,-0.01,0.70,0.00,24.80,28.45,31.37,14.46,43.62,1024.75,2026.39,3235.88,2932.86,3316.01,600.06,597.20,26.91,0000 0000 0000 0000 000000
2016-10-18 04:33:08,0.01,0.70,0.00,24.80,28.44,31.34,14.41,43.99,1024.76,2026.18,3235.32,2932.37,3316.00,600.11,597.42,26.96,0000 0000 0000 0000 000000
2016-10-18 04:38:10,-0.00,0.70,0.00,24.81,28.43,31.37,14.45,43.79,1024.82,2026.13,3235.12,2932.17,3316.00,599.79,596.99,27.01,0000 0000 0000 0000 000000
2016-10-18 04:43:12,0.01,0.70,0.00,24.80,28.43,31.36,14.43,43.63,1024.79,2026.18,3235.10,2932.20,3316.00,599.76,596.93,27.06,0000 0000 0000 0000 000000
2016-10-18 04:48:13,0.01,0.70,0.00,24.80,28.42,31.35,14.39,43.55,1024.71,2026.26,3235.11,2932.20,3316.00,599.70,596.85,27.11,0000 0000 0000 0000 000000
2016-10-18 04:53:14,0.01,0.70,0.00,24.79,28.42,31.33,14.50,43.66,1024.84,2026.39,3235.04,2932.10,3316.00,600.39,597.64,27.16,0000 0000 0000 0000 000000
2016-10-18 04:58:16,-0.01,0.70,0.00,24.80,28.42,31.35,14.53,43.90,1024.86,2026.26,3234.99,2932.02,3315.98,600.15,597.38,27.21,0000 0000 0000 0000 000000
2016-10-18 05:03:17,0.01,0.70,0.00,24.80,28.42,31.31,14.40,43.55,1024.84,2026.26,3234.98,2932.00,3315.96,599.96,597.16,27.26,0000 0000 0000 0000 000000
2016-10-18 05:08:18,0.01,0.70,0.00,24.82,28.42,31.33,14.38,43.67,1024.79,2026.35,3234.99,2932.00,3315.98,600.08,597.20,27.31,0000 0000 0000 0000 000000
2016-10-18 05:13:20,0.01,0.70,0.00,24.82,28.40,31.31,14.48,43.62,1024.87,2026.38,3234.98,2932.01,3315.94,600.11,597.34,27.36,0000 0000 0000 0000 000000
2016-10-18 05:18:21,-0.01,0.70,0.00,24.81,28.40,31.33,14.47,43.30,1024.86,2026.39,3234.94,2932.00,3315.79,600.09,597.31,27.41,0000 0000 0000 0000 000000
2016-10-18 05:23:22,0.03,0.70,0.00,24.79,28.40,31.32,14.50,43.48,1024.89,2026.56,3234.94,2932.00,3315.76,600.12,597.34,27.46,0000 0000 0000 0000 000000
2016-10-18 05:28:23,-0.01,0.70,0.00,24.82,28.39,31.33,14.45,44.07,1024.91,2026.47,3234.52,2932.00,3315.49,600.36,597.66,27.51,0000 0000 0000 0000 000000
2016-10-18 05:33:24,0.00,0.70,0.00,24.81,28.37,31.29,14.37,43.66,1024.92,2026.26,3234.05,2931.99,3315.05,599.70,597.07,27.56,0000 0000 0000 0000 000000
2016-10-18 05:38:25,0.04,0.70,0.00,24.75,28.37,31.30,14.44,43.64,1024.92,2026.57,3234.04,2931.99,3315.07,600.13,597.51,27.61,0000 0000 0000 0000 000000
2016-10-18 05:43:26,0.01,0.70,0.00,24.77,28.37,31.32,14.51,43.92,1024.92,2026.87,3234.02,2931.99,3315.17,600.23,597.56,27.66,0000 0000 0000 0000 000000
2016-10-18 05:48:28,-0.00,0.70,0.00,24.78,28.37,31.30,14.49,43.67,1024.92,2026.87,3234.03,2931.99,3315.08,600.29,597.68,27.71,0000 0000 0000 0000 000000
2016-10-18 05:53:29,-0.00,0.70,0.00,24.76,28.36,31.32,14.40,43.48,1024.92,2026.77,3234.01,2931.98,3315.04,599.63,596.84,27.76,0000 0000 0000 0000 000000
2016-10-18 05:58:30,0.01,0.70,0.00,24.74,28.35,31.30,14.41,43.35,1024.92,2026.92,3234.00,2931.99,3315.02,599.62,597.05,27.81,0000 0000 0000 0000 000000
2016-10-18 06:03:31,-0.00,0.70,0.00,24.76,28.35,31.32,14.54,43.93,1024.92,2026.86,3233.98,2931.97,3315.00,600.19,597.47,27.86,0000 0000 0000 0000 000000
2016-10-18 06:08:33,0.00,0.70,0.00,24.75,28.35,31.26,14.49,43.77,1024.92,2026.94,3233.99,2931.96,3315.00,600.16,597.62,27.91,0000 0000 0000 0000 000000
2016-10-18 06:13:34,0.00,0.70,0.00,24.74,28.35,31.26,14.47,43.45,1024.92,2026.95,3233.98,2931.94,3315.00,599.82,597.16,27.96,0000 0000 0000 0000 000000
2016-10-18 06:18:35,0.00,0.70,0.00,24.77,28.34,31.25,14.47,43.77,1024.92,2026.96,3233.95,2931.87,3315.00,600.32,597.66,28.01,0000 0000 0000 0000 000000
2016-10-18 06:23:37,-0.00,0.70,0.00,24.75,28.33,31.28,14.40,43.48,1024.92,2026.95,3233.92,2931.89,3315.00,599.92,597.27,28.06,0000 0000 0000 0000 000000
2016-10-18 06:28:38,-0.00,0.70,0.00,24.73,28.32,31.26,14.41,44.08,1024.92,2026.93,3233.94,2931.76,3315.00,599.07,596.49,28.11,0000 0000 0000 0000 000000
2016-10-18 06:33:40,0.02,0.70,0.00,24.73,28.32,31.27,14.42,43.50,1024.92,2026.94,3233.28,2931.50,3315.00,599.89,597.10,28.16,0000 0000 0000 0000 000000
2016-10-18 06:38:41,-0.00,0.70,0.00,24.72,28.32,31.31,14.53,43.46,1024.92,2026.98,3233.14,2931.64,3315.00,600.34,597.80,28.21,0000 0000 0000 0000 000000
2016-10-18 06:43:42,0.00,0.70,0.00,24.73,28.32,31.27,14.50,43.49,1024.92,2026.98,3233.04,2931.48,3314.99,600.21,597.57,28.26,0000 0000 0000 0000 000000
2016-10-18 06:48:44,0.00,0.70,0.00,24.73,28.30,31.27,14.46,43.57,1024.92,2026.99,3233.62,2931.27,3314.98,600.27,597.69,28.31,0000 0000 0000 0000 000000
2016-10-18 06:53:45,0.01,0.70,0.00,24.72,28.30,31.27,14.48,43.73,1024.92,2026.98,3233.19,2931.02,3314.97,600.36,597.79,28.36,0000 0000 0000 0000 000000
2016-10-18 06:58:46,0.00,0.70,0.00,24.71,28.30,31.24,14.30,44.44,1024.92,2026.98,3233.25,2931.01,3314.97,599.32,596.76,28.41,0000 0000 0000 0000 000000
2016-10-18 07:03:47,0.00,0.70,0.00,24.70,28.28,31.24,14.50,44.15,1024.93,2026.99,3233.11,2931.00,3314.96,599.78,597.19,28.46,0000 0000 0000 0000 000000
2016-10-18 07:08:49,0.00,0.70,0.00,24.71,28.27,31.27,14.39,43.88,1024.94,2026.98,3233.18,2931.00,3314.88,599.37,597.05,28.51,0000 0000 0000 0000 000000
2016-10-18 07:13:50,0.00,0.70,0.00,24.69,28.27,31.24,14.40,44.17,1024.93,2026.98,3233.02,2931.00,3314.70,599.77,597.23,28.56,0000 0000 0000 0000 000000
2016-10-18 07:18:51,0.00,0.70,0.00,24.68,28.26,31.25,14.50,43.98,1024.93,2026.99,3233.00,2931.00,3314.79,600.14,597.60,28.61,0000 0000 0000 0000 000000
2016-10-18 07:23:53,0.00,0.70,0.00,24.69,28.25,31.23,14.43,43.73,1024.92,2026.99,3233.00,2931.00,3314.64,599.49,596.98,28.66,0000 0000 0000 0000 000000
2016-10-18 07:28:54,0.00,0.70,0.00,24.73,28.25,31.22,14.53,43.85,1024.93,2026.99,3233.00,2931.00,3314.61,599.98,597.41,28.71,0000 0000 0000 0000 000000
2016-10-18 07:33:56,0.00,0.70,0.00,24.70,28.24,31.23,14.42,44.08,1024.92,2026.99,3232.99,2931.00,3314.47,600.25,597.73,28.76,0000 0000 0000 0000 000000
2016-10-18 07:38:57,0.00,0.70,0.00,24.71,28.23,31.24,14.39,43.78,1024.92,2026.99,3232.98,2931.00,3314.51,599.85,597.31,28.82,0000 0000 0000 0000 000000
2016-10-18 07:43:59,0.00,0.70,0.00,24.72,28.22,31.23,14.49,43.93,1024.93,2026.99,3232.93,2931.00,3314.39,600.21,597.63,28.87,0000 0000 0000 0000 000000
2016-10-18 07:49:00,0.00,0.70,0.00,24.71,28.22,31.22,14.46,43.55,1024.93,2026.99,3232.90,2930.99,3314.17,599.82,597.30,28.92,0000 0000 0000 0000 000000
2016-10-18 07:54:02,0.01,0.70,0.00,24.69,28.22,31.21,14.54,43.59,1024.93,2027.00,3232.52,2930.99,3314.14,600.37,597.84,28.97,0000 0000 0000 0000 000000
2016-10-18 07:59:03,0.00,0.71,0.00,24.66,28.20,31.22,14.58,43.93,1024.92,2027.01,3232.05,2930.98,3314.06,600.23,597.85,29.02,0000 0000 0000 0000 000000
2016-10-18 08:04:04,0.00,0.71,0.00,24.63,28.20,31.21,14.38,43.47,1024.93,2027.02,3232.00,2930.95,3314.03,598.90,596.78,29.07,0000 0000 0000 0000 000000
2016-10-18 08:09:05,0.00,0.71,0.00,24.64,28.20,31.20,14.44,43.51,1024.95,2027.01,3232.00,2930.90,3314.01,600.02,597.63,29.12,0000 0000 0000 0000 000000
2016-10-18 08:14:07,0.00,0.71,0.00,24.66,28.19,31.20,14.42,43.68,1024.97,2027.02,3232.00,2930.86,3314.00,599.84,597.49,29.17,0000 0000 0000 0000 000000
2016-10-18 08:19:08,0.00,0.71,0.00,24.64,28.18,31.20,14.48,43.76,1024.97,2027.04,3232.00,2930.76,3314.00,600.23,597.85,29.22,0000 0000 0000 0000 000000
2016-10-18 08:24:09,0.01,0.71,0.00,24.61,28.17,31.21,14.43,43.85,1025.06,2027.04,3231.90,2930.40,3314.00,600.02,597.83,29.27,0000 0000 0000 0000 000000
2016-10-18 08:29:11,0.01,0.71,0.00,24.62,28.17,31.20,14.44,43.58,1025.17,2027.14,3231.75,2930.38,3314.00,599.93,597.71,29.32,0000 0000 0000 0000 000000
2016-10-18 08:34:12,0.02,0.71,0.00,24.60,28.17,31.21,14.47,43.49,1025.11,2027.30,3231.72,2930.44,3314.00,600.30,598.14,29.37,0000 0000 0000 0000 000000
2016-10-18 08:39:13,-0.03,0.71,0.00,24.61,28.17,31.21,14.48,43.92,1025.19,2027.11,3231.91,2930.19,3313.98,599.81,597.72,29.42,0000 0000 0000 0000 000000
2016-10-18 08:44:14,0.02,0.71,0.00,24.60,28.16,31.20,14.44,43.93,1025.33,2027.20,3231.63,2930.14,3313.98,599.93,597.82,29.47,0000 0000 0000 0000 000000
2016-10-18 08:49:16,0.02,0.71,0.00,24.57,28.15,31.20,14.46,43.70,1025.37,2027.36,3231.11,2930.08,3313.98,600.18,598.17,29.52,0000 0000 0000 0000 000000
2016-10-18 08:54:17,0.02,0.71,0.00,24.57,28.15,31.21,14.50,43.77,1025.38,2027.61,3231.04,2930.06,3313.96,599.92,597.93,29.57,0000 0000 0000 0000 000000
2016-10-18 08:59:18,0.03,0.71,0.00,24.53,28.15,31.22,14.50,44.08,1025.39,2027.75,3231.00,2930.03,3313.94,600.05,598.10,29.62,0000 0000 0000 0000 000000
2016-10-18 09:04:19,-0.00,0.71,0.00,24.52,28.14,31.21,14.46,44.12,1025.39,2027.75,3231.00,2930.01,3313.87,599.55,598.01,29.67,0000 0000 0000 0000 000000
2016-10-18 09:09:20,0.02,0.71,0.00,24.52,28.12,31.19,14.52,44.17,1025.40,2027.89,3230.96,2930.00,3313.57,600.40,598.51,29.72,0000 0000 0000 0000 000000
2016-10-18 09:14:22,0.00,0.71,0.00,24.54,28.12,31.19,14.61,44.26,1025.40,2027.91,3230.95,2930.00,3313.32,600.62,598.72,29.77,0000 0000 0000 0000 000000
2016-10-18 09:19:23,-0.00,0.71,0.00,24.53,28.12,31.18,14.54,43.76,1025.40,2027.94,3230.89,2930.00,3313.18,599.96,598.07,29.82,0000 0000 0000 0000 000000
2016-10-18 09:24:24,0.00,0.71,0.00,24.52,28.12,31.18,14.42,43.42,1025.40,2027.97,3230.93,2930.00,3313.17,600.72,598.74,29.87,0000 0000 0000 0000 000000
2016-10-18 09:29:25,0.01,0.71,0.00,24.51,28.12,31.20,14.37,43.27,1025.40,2027.96,3230.28,2930.00,3313.02,599.30,597.44,29.92,0000 0000 0000 0000 000000
2016-10-18 09:34:27,0.00,0.71,0.00,24.49,28.12,31.18,14.53,43.52,1025.40,2027.96,3230.14,2930.00,3313.02,600.31,598.46,29.97,0000 0000 0000 0000 000000
2016-10-18 09:39:28,0.00,0.71,0.00,24.48,28.11,31.18,14.48,43.42,1025.40,2027.98,3230.03,2929.99,3313.01,599.46,597.60,30.02,0000 0000 0000 0000 000000
2016-10-18 09:44:29,0.00,0.71,0.00,24.46,28.10,31.18,14.45,43.51,1025.41,2027.97,3230.00,2929.94,3313.00,600.09,598.30,30.07,0000 0000 0000 0000 000000
2016-10-18 09:49:31,0.00,0.71,0.00,24.46,28.10,31.18,14.52,43.28,1025.41,2027.97,3230.00,2929.87,3312.99,600.06,598.29,30.12,0000 0000 0000 0000 000000
2016-10-18 09:54:32,0.00,0.71,0.00,24.45,28.10,31.17,14.47,43.58,1025.42,2027.99,3229.99,2929.87,3312.99,600.07,598.23,30.17,0000 0000 0000 0000 000000
2016-10-18 09:59:33,0.01,0.71,0.00,24.44,28.10,31.19,14.44,43.39,1025.42,2027.98,3229.98,2929.49,3312.97,600.06,598.24,30.22,0000 0000 0000 0000 000000
2016-10-18 10:04:34,0.01,0.72,0.00,24.44,28.09,31.19,14.48,43.30,1025.41,2027.98,3229.87,2929.23,3312.93,599.97,598.28,30.27,0000 0000 0000 0000 000000
2016-10-18 10:09:35,0.02,0.72,0.00,24.45,28.07,31.19,14.45,43.62,1025.41,2027.98,3229.30,2929.06,3312.62,599.71,597.98,30.32,0000 0000 0000 0000 000000
2016-10-18 10:14:37,-0.00,0.72,0.00,24.44,28.07,31.17,14.40,43.29,1025.41,2027.99,3229.50,2929.04,3312.38,599.50,597.73,30.37,0000 0000 0000 0000 000000
2016-10-18 10:19:38,0.01,0.72,0.00,24.42,28.07,31.16,14.47,43.32,1025.42,2027.98,3229.40,2929.04,3312.25,600.04,598.19,30.42,0000 0000 0000 0000 000000
2016-10-18 10:24:39,0.00,0.72,0.00,24.41,28.07,31.17,14.54,43.40,1025.42,2027.99,3229.01,2929.00,3312.07,599.89,598.19,30.47,0000 0000 0000 0000 000000
2016-10-18 10:29:40,0.00,0.72,0.00,24.39,28.05,31.17,14.53,44.06,1025.42,2027.99,3228.87,2928.99,3312.00,600.74,599.14,30.52,0000 0000 0000 0000 000000
2016-10-18 10:34:41,0.01,0.72,0.00,24.39,28.05,31.17,14.45,43.40,1025.41,2027.99,3228.30,2928.95,3311.99,599.63,597.97,30.57,0000 0000 0000 0000 000000
2016-10-18 10:39:42,0.03,0.72,0.00,24.38,28.05,31.19,14.43,43.43,1025.43,2027.99,3227.89,2928.38,3311.62,599.77,598.15,30.62,0000 0000 0000 0000 000000
2016-10-18 10:44:44,0.02,0.72,0.00,24.36,28.05,31.17,14.42,43.65,1025.43,2027.99,3227.18,2928.01,3311.05,599.87,598.31,30.67,0000 0000 0000 0000 000000
2016-10-18 10:49:45,0.00,0.72,0.00,24.34,28.04,31.17,14.45,43.67,1025.42,2027.99,3227.00,2927.99,3311.00,599.95,598.55,30.72,0000 0000 0000 0000 000000
2016-10-18 10:54:46,0.01,0.72,0.00,24.34,28.02,31.17,14.48,43.80,1025.43,2027.99,3226.96,2927.92,3310.66,599.73,598.22,30.77,0000 0000 0000 0000 000000
2016-10-18 10:59:47,0.04,0.72,0.00,24.35,28.02,31.17,14.45,43.73,1025.48,2027.99,3226.28,2927.35,3310.08,599.45,597.81,30.82,0000 0000 0000 0000 000000
2016-10-18 11:04:49,0.01,0.72,0.00,24.32,28.02,31.19,14.51,43.73,1025.51,2027.99,3225.70,2927.02,3310.00,600.20,598.81,30.87,0000 0000 0000 0000 000000
2016-10-18 11:09:50,0.00,0.72,0.00,24.31,28.02,31.18,14.53,43.60,1025.52,2027.99,3225.45,2927.00,3310.00,599.91,598.52,30.92,0000 0000 0000 0000 000000
2016-10-18 11:14:51,-0.00,0.72,0.00,24.32,28.02,31.19,14.56,43.80,1025.50,2027.99,3225.73,2927.00,3309.98,601.15,599.72,30.97,0000 0000 0000 0000 000000
2016-10-18 11:19:52,0.01,0.72,0.00,24.30,28.01,31.20,14.53,44.23,1025.52,2027.99,3225.07,2926.99,3309.84,600.49,598.98,31.02,0000 0000 0000 0000 000000
2016-10-18 11:24:53,0.01,0.73,0.00,24.27,28.00,31.20,14.36,43.77,1025.55,2027.99,3225.01,2926.95,3309.25,599.78,598.72,31.07,0000 0000 0000 0000 000000
2016-10-18 11:29:55,0.02,0.73,0.00,24.25,28.00,31.21,14.42,43.79,1025.48,2027.98,3224.85,2926.56,3309.04,599.85,598.66,31.12,0000 0000 0000 0000 000000
2016-10-18 11:34:56,0.02,0.73,0.00,24.23,28.00,31.21,14.37,43.31,1025.48,2027.99,3224.20,2926.05,3309.00,599.30,597.96,31.17,0000 0000 0000 0000 000000
2016-10-18 11:39:57,0.00,0.73,0.00,24.24,28.00,31.21,14.60,43.88,1025.54,2027.99,3224.11,2926.02,3309.00,600.51,599.21,31.22,0000 0000 0000 0000 000000
2016-10-18 11:44:59,0.00,0.73,0.00,24.24,28.00,31.21,14.58,44.03,1025.66,2027.99,3223.98,2926.00,3308.92,600.24,599.12,31.27,0000 0000 0000 0000 000000
2016-10-18 11:50:00,0.01,0.73,0.00,24.22,28.00,31.23,14.48,44.04,1025.61,2027.99,3223.66,2925.99,3308.67,599.97,598.87,31.32,0000 0000 0000 0000 000000
2016-10-18 11:55:01,0.01,0.73,0.00,24.20,28.00,31.23,14.44,43.99,1025.61,2027.99,3223.20,2925.97,3308.23,599.78,598.66,31.37,0000 0000 0000 0000 000000
2016-10-18 12:00:02,0.01,0.73,0.00,24.19,28.00,31.23,14.56,44.02,1025.70,2027.99,3223.01,2925.70,3308.02,600.04,599.02,31.42,0000 0000 0000 0000 000000
2016-10-18 12:05:03,0.01,0.73,0.00,24.17,28.00,31.24,14.53,43.93,1025.73,2027.99,3222.89,2925.40,3308.00,599.82,598.82,31.47,0000 0000 0000 0000 000000
2016-10-18 12:10:05,0.01,0.73,0.00,24.17,28.01,31.25,14.53,44.02,1025.62,2027.99,3222.33,2925.08,3308.00,600.07,598.92,31.52,0000 0000 0000 0000 000000
2016-10-18 12:15:06,0.00,0.73,0.00,24.12,28.02,31.26,14.48,44.14,1025.52,2027.99,3222.22,2925.02,3307.99,599.67,598.55,31.57,0000 0000 0000 0000 000000
2016-10-18 12:20:07,0.00,0.73,0.00,24.12,28.02,31.27,14.46,44.01,1025.49,2027.99,3222.01,2925.00,3307.91,599.25,598.05,31.63,0000 0000 0000 0000 000000
2016-10-18 12:25:08,0.00,0.73,0.00,24.09,28.02,31.27,14.56,43.75,1025.45,2027.99,3222.00,2925.00,3307.57,600.01,599.02,31.68,0000 0000 0000 0000 000000
2016-10-18 12:30:09,0.00,0.73,0.00,24.08,28.02,31.28,14.47,43.55,1025.43,2027.99,3221.99,2924.97,3307.06,599.35,598.35,31.73,0000 0000 0000 0000 000000
2016-10-18 12:35:11,0.01,0.73,0.00,24.05,28.03,31.27,14.59,43.69,1025.42,2027.99,3221.51,2924.87,3307.02,600.13,599.19,31.78,0000 0000 0000 0000 000000
2016-10-18 12:40:12,0.01,0.73,0.00,23.98,28.05,31.27,14.62,44.11,1025.41,2027.99,3221.03,2924.54,3307.00,600.64,599.85,31.83,0000 0000 0000 0000 000000
2016-10-18 12:45:14,0.01,0.74,0.00,23.98,28.05,31.28,14.42,43.89,1025.41,2027.99,3221.00,2924.03,3306.81,599.95,598.89,31.88,0000 0000 0000 0000 000000
2016-10-18 12:50:15,0.01,0.74,0.00,23.96,28.05,31.28,14.47,43.91,1025.42,2027.98,3220.86,2924.01,3306.29,599.74,599.00,31.93,0000 0000 0000 0000 000000
2016-10-18 12:55:17,0.01,0.74,0.00,23.93,28.07,31.29,14.49,43.70,1025.42,2027.97,3220.12,2923.99,3306.01,600.33,599.64,31.98,0000 0000 0000 0000 000000